Time,TemperatureF,DewpointF,PressureIn,WindDirection,WindDirectionDegrees,WindSpeedMPH,WindSpeedGustMPH,Humidity,HourlyPrecipIn,Conditions,Clouds,dailyrainin,SoftwareType,DateUTC
2013-10-20 00:04:00,43.5,40.5,30.03,East,90,0.0,0.0,89,0.00,,,0.00,WUHU21623XXSP,2013-10-20 04:04:00,
2013-10-20 00:09:00,43.3,40.3,30.03,East,90,0.0,0.0,89,0.00,,,0.00,WUHU21623XXSP,2013-10-20 04:09:00,
2013-10-20 00:14:00,43.3,40.3,30.03,East,90,0.0,0.0,89,0.00,,,0.00,WUHU21623XXSP,2013-10-20 04:14:00,
2013-10-20 00:19:00,43.3,40.3,30.03,SSW,202,0.0,0.0,89,0.00,,,0.00,WUHU21623XXSP,2013-10-20 04:19:00,
2013-10-20 00:24:00,43.3,40.3,30.03,SSW,202,0.0,0.0,89,0.00,,,0.00,WUHU21623XXSP,2013-10-20 04:24:00,
2013-10-20 00:29:00,43.2,40.2,30.03,ESE,112,0.0,0.0,89,0.00,,,0.00,WUHU21623XXSP,2013-10-20 04:29:00,
2013-10-20 00:34:00,43.0,40.0,30.03,SSW,202,0.0,0.0,89,0.00,,,0.00,WUHU21623XXSP,2013-10-20 04:34:00,
2013-10-20 00:40:00,43.0,40.0,30.03,ESE,112,0.0,0.0,89,0.00,,,0.00,WUHU21623XXSP,2013-10-20 04:40:00,
2013-10-20 00:45:00,42.6,39.6,30.03,East,90,0.0,1.7,89,0.00,,,0.00,WUHU21623XXSP,2013-10-20 04:45:00,
2013-10-20 00:50:00,42.6,39.6,30.03,East,90,0.0,1.7,89,0.00,,,0.00,WUHU21623XXSP,2013-10-20 04:50:00,
2013-10-20 00:55:00,42.8,39.8,30.03,ESE,112,0.0,0.0,89,0.00,,,0.00,WUHU21623XXSP,2013-10-20 04:55:00,
2013-10-20 01:00:00,42.8,39.8,30.03,ESE,112,0.0,0.0,89,0.00,,,0.00,WUHU21623XXSP,2013-10-20 05:00:00,
2013-10-20 01:05:00,42.8,39.8,30.03,ESE,112,0.0,0.0,89,0.00,,,0.00,WUHU21623XXSP,2013-10-20 05:05:00,
2013-10-20 01:21:00,42.1,39.1,30.03,South,180,0.0,0.0,89,0.00,,,0.00,WUHU21623XXSP,2013-10-20 05:21:00,
2013-10-20 01:26:00,42.1,39.1,30.03,ESE,112,0.0,0.0,89,0.00,,,0.00,WUHU21623XXSP,2013-10-20 05:26:00,
2013-10-20 01:31:00,42.1,39.1,30.03,ESE,112,0.0,0.0,89,0.00,,,0.00,WUHU21623XXSP,2013-10-20 05:31:00,
2013-10-20 01:36:00,42.1,39.1,30.03,ESE,112,0.0,0.0,89,0.00,,,0.00,WUHU21623XXSP,2013-10-20 05:36:00,
2013-10-20 01:41:00,42.1,39.1,30.03,South,180,0.0,0.0,89,0.00,,,0.00,WUHU21623XXSP,2013-10-20 05:41:00,
2013-10-20 01:46:00,42.1,39.1,30.03,ESE,112,0.0,0.0,89,0.00,,,0.00,WUHU21623XXSP,2013-10-20 05:46:00,
2013-10-20 01:51:00,42.1,39.1,30.03,ESE,112,0.0,0.0,89,0.00,,,0.00,WUHU21623XXSP,2013-10-20 05:51:00,
2013-10-20 01:56:00,42.1,39.1,30.03,ESE,112,0.0,0.0,89,0.00,,,0.00,WUHU21623XXSP,2013-10-20 05:56:00,
2013-10-20 02:01:00,42.1,39.1,30.04,ESE,112,0.0,0.0,89,0.00,,,0.00,WUHU21623XXSP,2013-10-20 06:01:00,
2013-10-20 02:06:00,42.1,39.1,30.04,ESE,112,0.0,0.0,89,0.00,,,0.00,WUHU21623XXSP,2013-10-20 06:06:00,
2013-10-20 02:11:00,41.9,38.9,30.04,East,90,0.0,0.0,89,0.00,,,0.00,WUHU21623XXSP,2013-10-20 06:11:00,
2013-10-20 02:16:00,41.7,38.7,30.04,ESE,112,0.0,0.0,89,0.00,,,0.00,WUHU21623XXSP,2013-10-20 06:16:00,
2013-10-20 02:21:00,41.7,38.7,30.04,East,90,0.0,0.0,89,0.00,,,0.00,WUHU21623XXSP,2013-10-20 06:21:00,
2013-10-20 02:26:00,41.7,38.7,30.04,East,90,0.0,0.0,89,0.00,,,0.00,WUHU21623XXSP,2013-10-20 06:26:00,
2013-10-20 02:31:00,41.5,38.5,30.04,ESE,112,0.0,0.0,89,0.00,,,0.00,WUHU21623XXSP,2013-10-20 06:31:00,
2013-10-20 02:36:00,41.5,38.5,30.05,ESE,112,0.0,0.0,89,0.00,,,0.00,WUHU21623XXSP,2013-10-20 06:36:00,
2013-10-20 02:41:00,41.4,38.4,30.04,East,90,0.0,0.0,89,0.00,,,0.00,WUHU21623XXSP,2013-10-20 06:41:00,
2013-10-20 02:46:00,41.2,38.2,30.04,ESE,112,0.0,0.0,89,0.00,,,0.00,WUHU21623XXSP,2013-10-20 06:46:00,
2013-10-20 02:51:00,41.0,38.0,30.05,ESE,112,0.0,0.0,89,0.00,,,0.00,WUHU21623XXSP,2013-10-20 06:51:00,
2013-10-20 02:56:00,40.8,37.8,30.05,East,90,0.0,0.0,89,0.00,,,0.00,WUHU21623XXSP,2013-10-20 06:56:00,
2013-10-20 03:02:00,40.6,37.9,30.05,ESE,112,0.0,0.0,90,0.00,,,0.00,WUHU21623XXSP,2013-10-20 07:02:00,
2013-10-20 03:07:00,40.6,37.9,30.05,East,90,0.0,0.0,90,0.00,,,0.00,WUHU21623XXSP,2013-10-20 07:07:00,
2013-10-20 03:12:00,40.3,37.6,30.05,East,90,0.0,0.0,90,0.00,,,0.00,WUHU21623XXSP,2013-10-20 07:12:00,
2013-10-20 03:17:00,40.1,37.4,30.05,South,180,0.0,0.0,90,0.00,,,0.00,WUHU21623XXSP,2013-10-20 07:17:00,
2013-10-20 03:22:00,40.1,37.4,30.05,SSW,202,0.0,0.0,90,0.00,,,0.00,WUHU21623XXSP,2013-10-20 07:22:00,
2013-10-20 03:27:00,40.1,37.4,30.04,East,90,0.0,0.0,90,0.00,,,0.00,WUHU21623XXSP,2013-10-20 07:27:00,
2013-10-20 03:32:00,40.1,37.4,30.04,ESE,112,0.0,0.0,90,0.00,,,0.00,WUHU21623XXSP,2013-10-20 07:32:00,
2013-10-20 03:37:00,40.1,37.4,30.04,ESE,112,0.0,0.0,90,0.00,,,0.00,WUHU21623XXSP,2013-10-20 07:37:00,
2013-10-20 03:42:00,40.1,37.4,30.04,ESE,112,0.0,0.0,90,0.00,,,0.00,WUHU21623XXSP,2013-10-20 07:42:00,
2013-10-20 03:47:00,40.1,37.4,30.04,South,180,0.0,0.0,90,0.00,,,0.00,WUHU21623XXSP,2013-10-20 07:47:00,
2013-10-20 03:52:00,40.1,37.4,30.03,East,90,0.0,0.0,90,0.00,,,0.00,WUHU21623XXSP,2013-10-20 07:52:00,
2013-10-20 03:57:00,39.9,37.2,30.04,SSW,202,0.0,0.0,90,0.00,,,0.00,WUHU21623XXSP,2013-10-20 07:57:00,
2013-10-20 04:02:00,39.9,37.2,30.04,SSW,202,0.0,0.0,90,0.00,,,0.00,WUHU21623XXSP,2013-10-20 08:02:00,
2013-10-20 04:07:00,39.9,37.2,30.03,ESE,112,0.0,0.0,90,0.00,,,0.00,WUHU21623XXSP,2013-10-20 08:07:00,
2013-10-20 04:12:00,39.7,37.0,30.04,ESE,112,0.0,0.0,90,0.00,,,0.00,WUHU21623XXSP,2013-10-20 08:12:00,
2013-10-20 04:17:00,39.7,37.0,30.03,ESE,112,0.0,0.0,90,0.00,,,0.00,WUHU21623XXSP,2013-10-20 08:17:00,
2013-10-20 04:22:00,39.6,36.9,30.04,ESE,112,0.0,0.0,90,0.00,,,0.00,WUHU21623XXSP,2013-10-20 08:22:00,
2013-10-20 04:27:00,39.4,36.7,30.04,ESE,112,0.0,0.0,90,0.00,,,0.00,WUHU21623XXSP,2013-10-20 08:27:00,
2013-10-20 04:32:00,39.4,36.7,30.04,East,90,0.0,0.0,90,0.00,,,0.00,WUHU21623XXSP,2013-10-20 08:32:00,
2013-10-20 04:38:00,39.4,36.7,30.03,East,90,0.0,0.0,90,0.00,,,0.00,WUHU21623XXSP,2013-10-20 08:38:00,
2013-10-20 04:43:00,39.2,36.5,30.03,ESE,112,0.0,0.0,90,0.00,,,0.00,WUHU21623XXSP,2013-10-20 08:43:00,
2013-10-20 04:48:00,39.0,36.3,30.03,ESE,112,0.0,0.0,90,0.00,,,0.00,WUHU21623XXSP,2013-10-20 08:48:00,
2013-10-20 04:53:00,39.0,36.3,30.04,ESE,112,0.0,0.0,90,0.00,,,0.00,WUHU21623XXSP,2013-10-20 08:53:00,
2013-10-20 04:58:00,38.8,35.9,30.04,East,90,0.0,0.0,89,0.00,,,0.00,WUHU21623XXSP,2013-10-20 08:58:00,
2013-10-20 05:03:00,38.8,35.9,30.04,East,90,0.0,0.0,89,0.00,,,0.00,WUHU21623XXSP,2013-10-20 09:03:00,
2013-10-20 05:08:00,38.5,35.8,30.04,East,90,0.0,0.0,90,0.00,,,0.00,WUHU21623XXSP,2013-10-20 09:08:00,
2013-10-20 05:13:00,38.5,35.8,30.04,East,90,0.0,0.0,90,0.00,,,0.00,WUHU21623XXSP,2013-10-20 09:13:00,
2013-10-20 05:18:00,38.5,35.8,30.04,East,90,0.0,0.0,90,0.00,,,0.00,WUHU21623XXSP,2013-10-20 09:18:00,
2013-10-20 05:23:00,38.3,35.6,30.04,East,90,0.0,0.0,90,0.00,,,0.00,WUHU21623XXSP,2013-10-20 09:23:00,
2013-10-20 05:28:00,38.3,35.6,30.04,SSW,202,0.0,0.0,90,0.00,,,0.00,WUHU21623XXSP,2013-10-20 09:28:00,
2013-10-20 05:33:00,38.3,35.6,30.04,ESE,112,0.0,0.0,90,0.00,,,0.00,WUHU21623XXSP,2013-10-20 09:33:00,
2013-10-20 05:38:00,38.3,35.6,30.04,East,90,0.0,0.0,90,0.00,,,0.00,WUHU21623XXSP,2013-10-20 09:38:00,
2013-10-20 05:43:00,38.1,35.4,30.04,East,90,0.0,0.0,90,0.00,,,0.00,WUHU21623XXSP,2013-10-20 09:43:00,
2013-10-20 05:48:00,38.1,35.4,30.04,East,90,0.0,0.0,90,0.00,,,0.00,WUHU21623XXSP,2013-10-20 09:48:00,
2013-10-20 05:53:00,38.1,35.4,30.04,East,90,0.0,0.0,90,0.00,,,0.00,WUHU21623XXSP,2013-10-20 09:53:00,
2013-10-20 05:58:00,38.1,35.4,30.05,NNE,22,0.0,0.0,90,0.00,,,0.00,WUHU21623XXSP,2013-10-20 09:58:00,
2013-10-20 06:03:00,38.1,35.4,30.05,East,90,0.0,0.0,90,0.00,,,0.00,WUHU21623XXSP,2013-10-20 10:03:00,
2013-10-20 06:08:00,37.9,35.2,30.05,East,90,0.0,0.0,90,0.00,,,0.00,WUHU21623XXSP,2013-10-20 10:08:00,
2013-10-20 06:13:00,37.9,35.2,30.05,East,90,0.0,0.0,90,0.00,,,0.00,WUHU21623XXSP,2013-10-20 10:13:00,
2013-10-20 06:18:00,37.9,35.2,30.05,ESE,112,0.0,0.0,90,0.00,,,0.00,WUHU21623XXSP,2013-10-20 10:18:00,
2013-10-20 06:24:00,37.9,35.2,30.05,East,90,0.0,0.0,90,0.00,,,0.00,WUHU21623XXSP,2013-10-20 10:24:00,
2013-10-20 06:29:00,37.9,35.2,30.05,East,90,0.0,0.0,90,0.00,,,0.00,WUHU21623XXSP,2013-10-20 10:29:00,
2013-10-20 06:34:00,37.9,35.2,30.05,ESE,112,0.0,0.0,90,0.00,,,0.00,WUHU21623XXSP,2013-10-20 10:34:00,
2013-10-20 06:39:00,37.9,35.2,30.05,ESE,112,0.0,0.0,90,0.00,,,0.00,WUHU21623XXSP,2013-10-20 10:39:00,
2013-10-20 06:44:00,37.9,35.2,30.05,NNE,22,0.0,0.0,90,0.00,,,0.00,WUHU21623XXSP,2013-10-20 10:44:00,
2013-10-20 06:49:00,37.9,35.2,30.05,NNE,22,0.0,0.0,90,0.00,,,0.00,WUHU21623XXSP,2013-10-20 10:49:00,
2013-10-20 06:54:00,37.8,35.1,30.05,ESE,112,0.0,0.0,90,0.00,,,0.00,WUHU21623XXSP,2013-10-20 10:54:00,
2013-10-20 06:59:00,37.8,35.1,30.05,ESE,112,0.0,0.0,90,0.00,,,0.00,WUHU21623XXSP,2013-10-20 10:59:00,
2013-10-20 07:04:00,37.6,34.9,30.05,East,90,0.0,0.0,90,0.00,,,0.00,WUHU21623XXSP,2013-10-20 11:04:00,
2013-10-20 07:09:00,37.6,34.9,30.05,NNE,22,0.0,0.0,90,0.00,,,0.00,WUHU21623XXSP,2013-10-20 11:09:00,
2013-10-20 07:14:00,37.6,34.9,30.05,ESE,112,0.0,0.0,90,0.00,,,0.00,WUHU21623XXSP,2013-10-20 11:14:00,
2013-10-20 07:19:00,37.4,34.7,30.05,ESE,112,0.0,0.0,90,0.00,,,0.00,WUHU21623XXSP,2013-10-20 11:19:00,
2013-10-20 07:24:00,37.2,34.5,30.05,ESE,112,0.0,0.0,90,0.00,,,0.00,WUHU21623XXSP,2013-10-20 11:24:00,
2013-10-20 07:29:00,37.2,34.5,30.06,ESE,112,0.0,0.0,90,0.00,,,0.00,WUHU21623XXSP,2013-10-20 11:29:00,
2013-10-20 07:34:00,37.2,34.5,30.06,ESE,112,0.0,0.0,90,0.00,,,0.00,WUHU21623XXSP,2013-10-20 11:34:00,
2013-10-20 07:39:00,37.2,34.5,30.06,NNE,22,0.0,0.0,90,0.00,,,0.00,WUHU21623XXSP,2013-10-20 11:39:00,
2013-10-20 07:44:00,37.2,34.5,30.06,ESE,112,0.0,0.0,90,0.00,,,0.00,WUHU21623XXSP,2013-10-20 11:44:00,
2013-10-20 07:49:00,37.2,34.5,30.06,ESE,112,0.0,0.0,90,0.00,,,0.00,WUHU21623XXSP,2013-10-20 11:49:00,
2013-10-20 07:54:00,37.0,34.3,30.06,ESE,112,0.0,0.0,90,0.00,,,0.00,WUHU21623XXSP,2013-10-20 11:54:00,
2013-10-20 07:59:00,36.9,34.2,30.07,ESE,112,0.0,0.0,90,0.00,,,0.00,WUHU21623XXSP,2013-10-20 11:59:00,
2013-10-20 08:04:00,36.7,34.0,30.07,East,90,0.0,0.0,90,0.00,,,0.00,WUHU21623XXSP,2013-10-20 12:04:00,
2013-10-20 08:10:00,36.7,34.0,30.07,ESE,112,0.0,0.0,90,0.00,,,0.00,WUHU21623XXSP,2013-10-20 12:10:00,
2013-10-20 08:15:00,36.9,34.2,30.07,East,90,0.0,0.0,90,0.00,,,0.00,WUHU21623XXSP,2013-10-20 12:15:00,
2013-10-20 08:20:00,36.9,34.2,30.08,East,90,0.0,0.0,90,0.00,,,0.00,WUHU21623XXSP,2013-10-20 12:20:00,
2013-10-20 08:25:00,37.0,34.3,30.08,East,90,0.0,0.0,90,0.00,,,0.00,WUHU21623XXSP,2013-10-20 12:25:00,
2013-10-20 08:30:00,37.2,34.5,30.08,East,90,0.0,0.0,90,0.00,,,0.00,WUHU21623XXSP,2013-10-20 12:30:00,
2013-10-20 08:35:00,37.4,34.7,30.08,East,90,0.0,0.0,90,0.00,,,0.00,WUHU21623XXSP,2013-10-20 12:35:00,
2013-10-20 08:40:00,37.9,35.2,30.08,East,90,0.0,0.0,90,0.00,,,0.00,WUHU21623XXSP,2013-10-20 12:40:00,
2013-10-20 08:45:00,38.1,35.4,30.08,East,90,0.0,0.0,90,0.00,,,0.00,WUHU21623XXSP,2013-10-20 12:45:00,
2013-10-20 08:50:00,38.5,35.8,30.09,ESE,112,0.0,0.0,90,0.00,,,0.00,WUHU21623XXSP,2013-10-20 12:50:00,
2013-10-20 08:55:00,38.5,35.8,30.09,East,90,0.0,0.0,90,0.00,,,0.00,WUHU21623XXSP,2013-10-20 12:55:00,
2013-10-20 09:00:00,38.7,35.7,30.09,East,90,0.0,0.0,89,0.00,,,0.00,WUHU21623XXSP,2013-10-20 13:00:00,
2013-10-20 09:05:00,39.2,36.5,30.08,NNE,22,0.0,0.0,90,0.00,,,0.00,WUHU21623XXSP,2013-10-20 13:05:00,
2013-10-20 09:11:00,39.9,37.2,30.09,ESE,112,0.0,0.0,90,0.00,,,0.00,WUHU21623XXSP,2013-10-20 13:11:00,
2013-10-20 09:16:00,40.6,37.9,30.09,NNE,22,0.0,0.0,90,0.00,,,0.00,WUHU21623XXSP,2013-10-20 13:16:00,
2013-10-20 09:21:00,41.2,38.5,30.09,East,90,0.0,0.0,90,0.00,,,0.00,WUHU21623XXSP,2013-10-20 13:21:00,
2013-10-20 09:26:00,41.9,39.2,30.09,NNE,22,0.0,0.0,90,0.00,,,0.00,WUHU21623XXSP,2013-10-20 13:26:00,
2013-10-20 09:31:00,42.4,39.4,30.09,NNE,22,0.0,0.0,89,0.00,,,0.00,WUHU21623XXSP,2013-10-20 13:31:00,
2013-10-20 09:36:00,42.8,39.8,30.09,East,90,0.0,0.0,89,0.00,,,0.00,WUHU21623XXSP,2013-10-20 13:36:00,
2013-10-20 09:41:00,43.3,40.3,30.09,ESE,112,1.4,1.7,89,0.00,,,0.00,WUHU21623XXSP,2013-10-20 13:41:00,
2013-10-20 09:46:00,43.9,41.2,30.09,NNE,22,0.0,1.7,90,0.00,,,0.00,WUHU21623XXSP,2013-10-20 13:46:00,
2013-10-20 09:51:00,44.4,41.7,30.09,East,90,0.0,0.0,90,0.00,,,0.00,WUHU21623XXSP,2013-10-20 13:51:00,
2013-10-20 09:56:00,45.0,42.3,30.09,North,0,0.0,1.7,90,0.00,,,0.00,WUHU21623XXSP,2013-10-20 13:56:00,
2013-10-20 10:01:00,45.5,42.8,30.09,NNE,22,0.0,1.7,90,0.00,,,0.00,WUHU21623XXSP,2013-10-20 14:01:00,
2013-10-20 10:06:00,46.0,43.0,30.09,WNW,292,0.0,0.0,89,0.00,,,0.00,WUHU21623XXSP,2013-10-20 14:06:00,
2013-10-20 10:11:00,46.6,43.9,30.09,NNE,22,0.0,0.0,90,0.00,,,0.00,WUHU21623XXSP,2013-10-20 14:11:00,
2013-10-20 10:17:00,48.0,45.0,30.09,North,0,0.0,0.0,89,0.00,,,0.00,WUHU21623XXSP,2013-10-20 14:17:00,
2013-10-20 10:22:00,49.1,46.0,30.09,NNE,22,0.0,0.0,89,0.00,,,0.00,WUHU21623XXSP,2013-10-20 14:22:00,
2013-10-20 10:27:00,49.6,45.9,30.09,East,90,0.0,0.0,87,0.00,,,0.00,WUHU21623XXSP,2013-10-20 14:27:00,
2013-10-20 10:32:00,50.2,45.8,30.09,NNE,22,0.0,1.9,85,0.00,,,0.00,WUHU21623XXSP,2013-10-20 14:32:00,
2013-10-20 10:37:00,51.1,45.8,30.09,North,0,1.4,1.9,82,0.00,,,0.00,WUHU21623XXSP,2013-10-20 14:37:00,
2013-10-20 10:42:00,52.5,46.9,30.09,NNE,22,0.9,1.7,81,0.00,,,0.00,WUHU21623XXSP,2013-10-20 14:42:00,
2013-10-20 10:47:00,53.2,46.9,30.09,North,0,0.0,1.7,79,0.00,,,0.00,WUHU21623XXSP,2013-10-20 14:47:00,
2013-10-20 10:52:00,54.0,47.3,30.09,East,90,0.0,1.0,78,0.00,,,0.00,WUHU21623XXSP,2013-10-20 14:52:00,
2013-10-20 10:57:00,54.7,46.2,30.09,East,90,0.0,0.0,73,0.00,,,0.00,WUHU21623XXSP,2013-10-20 14:57:00,
2013-10-20 11:02:00,54.9,46.0,30.09,East,90,0.0,0.0,72,0.00,,,0.00,WUHU21623XXSP,2013-10-20 15:02:00,
2013-10-20 11:07:00,55.2,46.0,30.09,North,0,0.0,1.3,71,0.00,,,0.00,WUHU21623XXSP,2013-10-20 15:07:00,
2013-10-20 11:12:00,55.6,45.2,30.09,ESE,112,1.2,1.9,68,0.00,,,0.00,WUHU21623XXSP,2013-10-20 15:12:00,
2013-10-20 11:17:00,56.3,46.7,30.09,North,0,0.0,1.9,70,0.00,,,0.00,WUHU21623XXSP,2013-10-20 15:17:00,
2013-10-20 11:22:00,57.0,46.5,30.09,West,270,0.0,1.3,68,0.00,,,0.00,WUHU21623XXSP,2013-10-20 15:22:00,
2013-10-20 11:27:00,57.0,45.7,30.09,North,0,0.0,3.0,66,0.00,,,0.00,WUHU21623XXSP,2013-10-20 15:27:00,
2013-10-20 11:32:00,57.7,46.4,30.09,East,90,0.0,3.0,66,0.00,,,0.00,WUHU21623XXSP,2013-10-20 15:32:00,
2013-10-20 11:38:00,57.9,45.8,30.09,NNE,22,0.0,0.0,64,0.00,,,0.00,WUHU21623XXSP,2013-10-20 15:38:00,
2013-10-20 11:43:00,58.6,46.5,30.09,NNE,22,0.0,1.0,64,0.00,,,0.00,WUHU21623XXSP,2013-10-20 15:43:00,
2013-10-20 11:48:00,58.8,45.8,30.09,South,180,0.0,1.0,62,0.00,,,0.00,WUHU21623XXSP,2013-10-20 15:48:00,
2013-10-20 11:53:00,58.8,45.4,30.09,NNE,22,0.0,3.8,61,0.00,,,0.00,WUHU21623XXSP,2013-10-20 15:53:00,
2013-10-20 11:58:00,59.5,45.2,30.09,ESE,112,0.0,3.8,59,0.00,,,0.00,WUHU21623XXSP,2013-10-20 15:58:00,
2013-10-20 12:03:00,58.8,44.0,30.08,East,90,2.3,3.0,58,0.00,,,0.00,WUHU21623XXSP,2013-10-20 16:03:00,
2013-10-20 12:08:00,59.4,45.5,30.08,North,0,0.0,3.0,60,0.00,,,0.00,WUHU21623XXSP,2013-10-20 16:08:00,
2013-10-20 12:13:00,60.1,46.2,30.09,North,0,0.0,2.7,60,0.00,,,0.00,WUHU21623XXSP,2013-10-20 16:13:00,
2013-10-20 12:18:00,60.4,46.1,30.08,North,0,0.0,2.7,59,0.00,,,0.00,WUHU21623XXSP,2013-10-20 16:18:00,
2013-10-20 12:23:00,60.6,45.8,30.08,NNE,22,1.2,2.7,58,0.00,,,0.00,WUHU21623XXSP,2013-10-20 16:23:00,
2013-10-20 12:28:00,60.6,45.3,30.08,South,180,0.0,3.8,57,0.00,,,0.00,WUHU21623XXSP,2013-10-20 16:28:00,
2013-10-20 12:33:00,61.3,46.0,30.08,ESE,112,0.0,3.8,57,0.00,,,0.00,WUHU21623XXSP,2013-10-20 16:33:00,
2013-10-20 12:38:00,61.3,46.0,30.08,North,0,0.0,2.7,57,0.00,,,0.00,WUHU21623XXSP,2013-10-20 16:38:00,
2013-10-20 12:43:00,61.5,46.1,30.08,North,0,2.6,3.3,57,0.00,,,0.00,WUHU21623XXSP,2013-10-20 16:43:00,
2013-10-20 12:48:00,61.0,46.6,30.08,North,0,0.0,3.3,59,0.00,,,0.00,WUHU21623XXSP,2013-10-20 16:48:00,
2013-10-20 12:53:00,62.1,47.1,30.08,WNW,292,2.3,2.7,58,0.00,,,0.00,WUHU21623XXSP,2013-10-20 16:53:00,
2013-10-20 12:58:00,61.5,45.6,30.08,North,0,0.0,3.8,56,0.00,,,0.00,WUHU21623XXSP,2013-10-20 16:58:00,
2013-10-20 13:03:00,61.7,45.8,30.08,West,270,0.0,3.8,56,0.00,,,0.00,WUHU21623XXSP,2013-10-20 17:03:00,
2013-10-20 13:08:00,62.2,46.8,30.07,WNW,292,1.4,3.0,57,0.00,,,0.00,WUHU21623XXSP,2013-10-20 17:08:00,
2013-10-20 13:14:00,62.4,46.0,30.07,North,0,0.0,1.9,55,0.00,,,0.00,WUHU21623XXSP,2013-10-20 17:14:00,
2013-10-20 13:19:00,63.1,46.6,30.07,West,270,0.0,1.7,55,0.00,,,0.00,WUHU21623XXSP,2013-10-20 17:19:00,
2013-10-20 13:24:00,63.7,47.6,30.07,WNW,292,1.2,1.3,56,0.00,,,0.00,WUHU21623XXSP,2013-10-20 17:24:00,
2013-10-20 13:29:00,64.0,46.9,30.07,North,0,2.1,2.4,54,0.00,,,0.00,WUHU21623XXSP,2013-10-20 17:29:00,
2013-10-20 13:34:00,64.0,47.4,30.06,NNE,22,0.0,2.4,55,0.00,,,0.00,WUHU21623XXSP,2013-10-20 17:34:00,
2013-10-20 13:39:00,63.7,46.8,30.06,WNW,292,0.9,2.7,55,0.00,,,0.00,WUHU21623XXSP,2013-10-20 17:39:00,
2013-10-20 13:44:00,64.0,46.9,30.05,WNW,292,0.0,2.7,54,0.00,,,0.00,WUHU21623XXSP,2013-10-20 17:44:00,
2013-10-20 13:49:00,64.2,47.1,30.05,North,0,2.1,2.4,54,0.00,,,0.00,WUHU21623XXSP,2013-10-20 17:49:00,
2013-10-20 13:54:00,64.0,46.5,30.05,North,0,0.0,2.7,53,0.00,,,0.00,WUHU21623XXSP,2013-10-20 17:54:00,
2013-10-20 13:59:00,64.8,47.6,30.05,North,0,0.0,2.7,54,0.00,,,0.00,WUHU21623XXSP,2013-10-20 17:59:00,
2013-10-20 14:04:00,64.6,46.0,30.05,North,0,1.2,1.3,51,0.00,,,0.00,WUHU21623XXSP,2013-10-20 18:04:00,
2013-10-20 14:09:00,64.9,47.3,30.05,West,270,1.4,1.7,53,0.00,,,0.00,WUHU21623XXSP,2013-10-20 18:09:00,
2013-10-20 14:14:00,64.6,47.0,30.04,WNW,292,0.0,1.7,53,0.00,,,0.00,WUHU21623XXSP,2013-10-20 18:14:00,
2013-10-20 14:19:00,64.9,46.3,30.04,West,270,2.6,3.0,51,0.00,,,0.00,WUHU21623XXSP,2013-10-20 18:19:00,
2013-10-20 14:24:00,64.0,46.5,30.04,West,270,3.3,5.1,53,0.00,,,0.00,WUHU21623XXSP,2013-10-20 18:24:00,
2013-10-20 14:29:00,63.5,46.5,30.03,West,270,3.3,5.1,54,0.00,,,0.00,WUHU21623XXSP,2013-10-20 18:29:00,
2013-10-20 14:34:00,63.1,45.6,30.03,WNW,292,0.0,3.8,53,0.00,,,0.00,WUHU21623XXSP,2013-10-20 18:34:00,
2013-10-20 14:39:00,64.8,47.6,30.03,North,0,0.0,3.8,54,0.00,,,0.00,WUHU21623XXSP,2013-10-20 18:39:00,
2013-10-20 14:45:00,66.0,48.4,30.03,North,0,0.0,1.0,53,0.00,,,0.00,WUHU21623XXSP,2013-10-20 18:45:00,
2013-10-20 14:50:00,65.8,46.8,30.02,West,270,0.0,0.0,50,0.00,,,0.00,WUHU21623XXSP,2013-10-20 18:50:00,
2013-10-20 14:55:00,64.9,47.3,30.03,North,0,0.0,2.4,53,0.00,,,0.00,WUHU21623XXSP,2013-10-20 18:55:00,
2013-10-20 15:00:00,64.0,46.0,30.02,West,270,2.3,3.8,52,0.00,,,0.00,WUHU21623XXSP,2013-10-20 19:00:00,
2013-10-20 15:05:00,63.9,45.8,30.02,North,0,1.2,3.8,52,0.00,,,0.00,WUHU21623XXSP,2013-10-20 19:05:00,
2013-10-20 15:10:00,63.7,46.1,30.02,West,270,0.0,2.7,53,0.00,,,0.00,WUHU21623XXSP,2013-10-20 19:10:00,
2013-10-20 15:15:00,63.7,46.1,30.02,WNW,292,2.1,2.7,53,0.00,,,0.00,WUHU21623XXSP,2013-10-20 19:15:00,
2013-10-20 15:20:00,63.5,46.0,30.02,WNW,292,0.0,2.4,53,0.00,,,0.00,WUHU21623XXSP,2013-10-20 19:20:00,
2013-10-20 15:25:00,62.8,45.3,30.02,North,0,1.7,2.4,53,0.00,,,0.00,WUHU21623XXSP,2013-10-20 19:25:00,
2013-10-20 15:30:00,62.8,45.8,30.02,North,0,0.0,1.9,54,0.00,,,0.00,WUHU21623XXSP,2013-10-20 19:30:00,
2013-10-20 15:35:00,62.4,45.0,30.01,WNW,292,0.0,1.9,53,0.00,,,0.00,WUHU21623XXSP,2013-10-20 19:35:00,
2013-10-20 15:40:00,62.4,45.5,30.02,WNW,292,0.0,1.9,54,0.00,,,0.00,WUHU21623XXSP,2013-10-20 19:40:00,
2013-10-20 15:45:00,62.2,44.3,30.01,North,0,0.0,1.9,52,0.00,,,0.00,WUHU21623XXSP,2013-10-20 19:45:00,
2013-10-20 15:57:00,62.4,45.5,30.01,North,0,1.4,1.7,54,0.00,,,0.00,WUHU21623XXSP,2013-10-20 19:57:00,
2013-10-20 16:04:00,62.6,45.2,30.01,North,0,0.0,1.7,53,0.00,,,0.00,WUHU21623XXSP,2013-10-20 20:04:00,
2013-10-20 16:09:00,63.0,46.0,30.01,West,270,2.1,2.4,54,0.00,,,0.00,WUHU21623XXSP,2013-10-20 20:09:00,
2013-10-20 16:14:00,63.0,45.5,30.01,North,0,0.0,2.4,53,0.00,,,0.00,WUHU21623XXSP,2013-10-20 20:14:00,
2013-10-20 16:19:00,62.8,44.8,30.01,SSW,202,0.0,2.4,52,0.00,,,0.00,WUHU21623XXSP,2013-10-20 20:19:00,
2013-10-20 16:24:00,62.8,45.3,30.01,WNW,292,1.4,1.7,53,0.00,,,0.00,WUHU21623XXSP,2013-10-20 20:24:00,
2013-10-20 16:29:00,63.0,45.0,30.01,North,0,0.0,1.7,52,0.00,,,0.00,WUHU21623XXSP,2013-10-20 20:29:00,
2013-10-20 16:34:00,63.0,45.0,30.01,East,90,0.0,1.7,52,0.00,,,0.00,WUHU21623XXSP,2013-10-20 20:34:00,
2013-10-20 16:39:00,63.1,45.6,30.01,NNE,22,0.0,0.0,52,0.00,,,0.00,WUHU21623XXSP,2013-10-20 20:39:00,
2013-10-20 16:44:00,63.3,45.8,30.01,North,0,0.0,0.0,53,0.00,,,0.00,WUHU21623XXSP,2013-10-20 20:44:00,
2013-10-20 16:49:00,63.5,46.0,30.01,WNW,292,0.0,0.0,53,0.00,,,0.00,WUHU21623XXSP,2013-10-20 20:49:00,
2013-10-20 16:55:00,63.3,45.8,30.01,NNE,22,0.0,0.0,53,0.00,,,0.00,WUHU21623XXSP,2013-10-20 20:55:00,
2013-10-20 17:00:00,63.1,45.2,30.01,North,0,0.0,0.0,52,0.00,,,0.00,WUHU21623XXSP,2013-10-20 21:00:00,
2013-10-20 17:05:00,62.4,44.0,30.01,NNE,22,1.2,1.3,51,0.00,,,0.00,WUHU21623XXSP,2013-10-20 21:05:00,
2013-10-20 17:10:00,62.2,43.9,30.01,East,90,0.0,1.3,51,0.00,,,0.00,WUHU21623XXSP,2013-10-20 21:10:00,
2013-10-20 17:15:00,61.9,44.5,30.01,NNE,22,0.0,1.3,53,0.00,,,0.00,WUHU21623XXSP,2013-10-20 21:15:00,
2013-10-20 17:20:00,61.3,44.5,30.01,WNW,292,0.0,0.0,54,0.00,,,0.00,WUHU21623XXSP,2013-10-20 21:20:00,
2013-10-20 17:25:00,61.2,45.3,30.01,WNW,292,0.0,0.0,56,0.00,,,0.00,WUHU21623XXSP,2013-10-20 21:25:00,
2013-10-20 17:30:00,60.8,46.0,30.01,North,0,0.0,0.0,58,0.00,,,0.00,WUHU21623XXSP,2013-10-20 21:30:00,
2013-10-20 17:35:00,60.4,45.1,30.00,NNE,22,0.0,0.0,57,0.00,,,0.00,WUHU21623XXSP,2013-10-20 21:35:00,
2013-10-20 17:40:00,60.4,44.2,30.01,NNE,22,0.0,0.0,55,0.00,,,0.00,WUHU21623XXSP,2013-10-20 21:40:00,
2013-10-20 17:45:00,60.4,44.2,30.01,North,0,0.0,0.0,55,0.00,,,0.00,WUHU21623XXSP,2013-10-20 21:45:00,
2013-10-20 17:50:00,60.3,44.5,30.01,NNE,22,0.0,0.0,56,0.00,,,0.00,WUHU21623XXSP,2013-10-20 21:50:00,
2013-10-20 17:55:00,59.9,44.6,30.01,NNE,22,0.0,0.0,57,0.00,,,0.00,WUHU21623XXSP,2013-10-20 21:55:00,
2013-10-20 18:00:00,59.7,44.4,30.01,NNE,22,0.0,0.0,57,0.00,,,0.00,WUHU21623XXSP,2013-10-20 22:00:00,
2013-10-20 18:05:00,58.8,44.5,30.01,NNE,22,0.0,0.0,59,0.00,,,0.00,WUHU21623XXSP,2013-10-20 22:05:00,
2013-10-20 18:10:00,58.8,45.0,30.01,NNE,22,0.0,0.0,60,0.00,,,0.00,WUHU21623XXSP,2013-10-20 22:10:00,
2013-10-20 18:15:00,57.9,45.8,30.01,North,0,0.0,0.0,64,0.00,,,0.00,WUHU21623XXSP,2013-10-20 22:15:00,
2013-10-20 18:20:00,57.4,45.7,30.01,East,90,0.0,0.0,65,0.00,,,0.00,WUHU21623XXSP,2013-10-20 22:20:00,
2013-10-20 18:26:00,56.8,46.0,30.01,ESE,112,0.0,0.0,67,0.00,,,0.00,WUHU21623XXSP,2013-10-20 22:26:00,
2013-10-20 18:31:00,56.5,45.6,30.01,ESE,112,0.0,0.0,67,0.00,,,0.00,WUHU21623XXSP,2013-10-20 22:31:00,
2013-10-20 18:36:00,55.6,45.6,30.01,South,180,0.0,0.0,69,0.00,,,0.00,WUHU21623XXSP,2013-10-20 22:36:00,
2013-10-20 18:41:00,55.0,45.8,30.01,South,180,0.0,0.0,71,0.00,,,0.00,WUHU21623XXSP,2013-10-20 22:41:00,
2013-10-20 18:46:00,54.5,46.0,30.01,South,180,0.0,0.0,73,0.00,,,0.00,WUHU21623XXSP,2013-10-20 22:46:00,
2013-10-20 18:51:00,54.0,45.8,30.01,South,180,0.0,0.0,74,0.00,,,0.00,WUHU21623XXSP,2013-10-20 22:51:00,
2013-10-20 18:56:00,53.4,45.7,30.01,South,180,0.0,0.0,75,0.00,,,0.00,WUHU21623XXSP,2013-10-20 22:56:00,
2013-10-20 19:01:00,52.5,45.2,30.01,South,180,0.0,0.0,76,0.00,,,0.00,WUHU21623XXSP,2013-10-20 23:01:00,
2013-10-20 19:06:00,52.2,45.2,30.02,ESE,112,0.0,0.0,77,0.00,,,0.00,WUHU21623XXSP,2013-10-20 23:06:00,
2013-10-20 19:11:00,51.4,44.8,30.02,ESE,112,0.0,0.0,78,0.00,,,0.00,WUHU21623XXSP,2013-10-20 23:11:00,
2013-10-20 19:16:00,51.1,44.5,30.02,South,180,0.0,0.0,78,0.00,,,0.00,WUHU21623XXSP,2013-10-20 23:16:00,
2013-10-20 19:21:00,50.5,44.3,30.02,ESE,112,0.0,0.0,79,0.00,,,0.00,WUHU21623XXSP,2013-10-20 23:21:00,
2013-10-20 19:26:00,50.0,44.1,30.01,ESE,112,0.0,0.0,80,0.00,,,0.00,WUHU21623XXSP,2013-10-20 23:26:00,
2013-10-20 19:31:00,49.6,43.7,30.02,ESE,112,0.0,0.0,80,0.00,,,0.00,WUHU21623XXSP,2013-10-20 23:31:00,
2013-10-20 19:36:00,49.3,43.6,30.02,East,90,0.0,0.0,81,0.00,,,0.00,WUHU21623XXSP,2013-10-20 23:36:00,
2013-10-20 19:41:00,48.9,43.3,30.02,East,90,0.0,0.0,81,0.00,,,0.00,WUHU21623XXSP,2013-10-20 23:41:00,
2013-10-20 19:46:00,48.7,43.4,30.02,East,90,0.0,0.0,82,0.00,,,0.00,WUHU21623XXSP,2013-10-20 23:46:00,
2013-10-20 19:52:00,48.4,43.1,30.02,East,90,0.0,0.0,82,0.00,,,0.00,WUHU21623XXSP,2013-10-20 23:52:00,
2013-10-20 19:57:00,48.0,43.1,30.02,NNE,22,0.0,0.0,83,0.00,,,0.00,WUHU21623XXSP,2013-10-20 23:57:00,
2013-10-20 20:02:00,47.7,42.7,30.03,East,90,0.0,0.0,83,0.00,,,0.00,WUHU21623XXSP,2013-10-21 00:02:00,
2013-10-20 20:07:00,47.3,42.4,30.03,ESE,112,0.0,0.0,83,0.00,,,0.00,WUHU21623XXSP,2013-10-21 00:07:00,
2013-10-20 20:12:00,47.1,42.2,30.03,ESE,112,0.0,0.0,83,0.00,,,0.00,WUHU21623XXSP,2013-10-21 00:12:00,
2013-10-20 20:17:00,46.9,42.4,30.03,ESE,112,0.0,0.0,84,0.00,,,0.00,WUHU21623XXSP,2013-10-21 00:17:00,
2013-10-20 20:22:00,46.6,42.3,30.03,East,90,0.0,0.0,85,0.00,,,0.00,WUHU21623XXSP,2013-10-21 00:22:00,
2013-10-20 20:27:00,46.2,42.0,30.03,East,90,0.0,0.0,85,0.00,,,0.00,WUHU21623XXSP,2013-10-21 00:27:00,
2013-10-20 20:32:00,46.2,42.0,30.03,East,90,0.0,0.0,85,0.00,,,0.00,WUHU21623XXSP,2013-10-21 00:32:00,
2013-10-20 20:37:00,46.2,42.0,30.03,East,90,0.0,0.0,85,0.00,,,0.00,WUHU21623XXSP,2013-10-21 00:37:00,
2013-10-20 20:42:00,45.9,41.9,30.03,East,90,0.0,0.0,86,0.00,,,0.00,WUHU21623XXSP,2013-10-21 00:42:00,
2013-10-20 20:47:00,45.7,41.8,30.03,ESE,112,0.0,0.0,86,0.00,,,0.00,WUHU21623XXSP,2013-10-21 00:47:00,
2013-10-20 20:52:00,45.5,41.6,30.03,East,90,0.0,0.0,86,0.00,,,0.00,WUHU21623XXSP,2013-10-21 00:52:00,
2013-10-20 20:57:00,45.5,41.6,30.03,East,90,0.0,0.0,86,0.00,,,0.00,WUHU21623XXSP,2013-10-21 00:57:00,
2013-10-20 21:03:00,45.3,41.4,30.03,East,90,0.0,0.0,86,0.00,,,0.00,WUHU21623XXSP,2013-10-21 01:03:00,
2013-10-20 21:08:00,45.1,41.2,30.03,East,90,0.0,0.0,86,0.00,,,0.00,WUHU21623XXSP,2013-10-21 01:08:00,
2013-10-20 21:13:00,45.1,41.5,30.04,East,90,0.0,0.0,87,0.00,,,0.00,WUHU21623XXSP,2013-10-21 01:13:00,
2013-10-20 21:18:00,45.0,41.3,30.03,East,90,0.0,0.0,87,0.00,,,0.00,WUHU21623XXSP,2013-10-21 01:18:00,
2013-10-20 21:23:00,45.0,41.3,30.04,East,90,0.0,0.0,87,0.00,,,0.00,WUHU21623XXSP,2013-10-21 01:23:00,
2013-10-20 21:28:00,45.0,41.3,30.04,East,90,0.0,0.0,87,0.00,,,0.00,WUHU21623XXSP,2013-10-21 01:28:00,
2013-10-20 21:33:00,44.6,41.0,30.04,ESE,112,0.0,0.0,87,0.00,,,0.00,WUHU21623XXSP,2013-10-21 01:33:00,
2013-10-20 21:38:00,44.6,41.0,30.04,ESE,112,0.0,0.0,87,0.00,,,0.00,WUHU21623XXSP,2013-10-21 01:38:00,
2013-10-20 21:43:00,44.6,41.0,30.04,ESE,112,0.0,0.0,87,0.00,,,0.00,WUHU21623XXSP,2013-10-21 01:43:00,
2013-10-20 21:48:00,44.4,40.8,30.04,ESE,112,0.0,0.0,87,0.00,,,0.00,WUHU21623XXSP,2013-10-21 01:48:00,
2013-10-20 21:53:00,44.4,40.8,30.04,East,90,0.0,0.0,87,0.00,,,0.00,WUHU21623XXSP,2013-10-21 01:53:00,
2013-10-20 21:58:00,44.2,40.6,30.04,East,90,0.0,0.0,87,0.00,,,0.00,WUHU21623XXSP,2013-10-21 01:58:00,
2013-10-20 22:03:00,44.1,40.4,30.05,ESE,112,0.0,0.0,87,0.00,,,0.00,WUHU21623XXSP,2013-10-21 02:03:00,
2013-10-20 22:08:00,43.9,40.3,30.05,ESE,112,0.0,0.0,87,0.00,,,0.00,WUHU21623XXSP,2013-10-21 02:08:00,
2013-10-20 22:14:00,43.9,40.3,30.04,East,90,0.0,0.0,87,0.00,,,0.00,WUHU21623XXSP,2013-10-21 02:14:00,
2013-10-20 22:19:00,43.9,40.6,30.05,East,90,0.0,0.0,88,0.00,,,0.00,WUHU21623XXSP,2013-10-21 02:19:00,
2013-10-20 22:24:00,43.7,40.4,30.05,East,90,0.0,0.0,88,0.00,,,0.00,WUHU21623XXSP,2013-10-21 02:24:00,
2013-10-20 22:29:00,43.5,40.2,30.05,East,90,0.0,0.0,88,0.00,,,0.00,WUHU21623XXSP,2013-10-21 02:29:00,
2013-10-20 22:34:00,43.5,40.2,30.05,East,90,0.0,0.0,88,0.00,,,0.00,WUHU21623XXSP,2013-10-21 02:34:00,
2013-10-20 22:39:00,43.5,40.2,30.05,East,90,0.0,0.0,88,0.00,,,0.00,WUHU21623XXSP,2013-10-21 02:39:00,
2013-10-20 22:44:00,43.5,40.2,30.05,East,90,0.0,0.0,88,0.00,,,0.00,WUHU21623XXSP,2013-10-21 02:44:00,
2013-10-20 22:49:00,43.3,40.0,30.05,East,90,0.0,0.0,88,0.00,,,0.00,WUHU21623XXSP,2013-10-21 02:49:00,
2013-10-20 22:54:00,43.2,39.8,30.05,ESE,112,0.0,0.0,88,0.00,,,0.00,WUHU21623XXSP,2013-10-21 02:54:00,
2013-10-20 22:59:00,43.2,39.8,30.05,East,90,0.0,0.0,88,0.00,,,0.00,WUHU21623XXSP,2013-10-21 02:59:00,
2013-10-20 23:04:00,43.0,39.7,30.05,East,90,0.0,0.0,88,0.00,,,0.00,WUHU21623XXSP,2013-10-21 03:04:00,
2013-10-20 23:09:00,43.2,39.8,30.05,ESE,112,0.0,0.0,88,0.00,,,0.00,WUHU21623XXSP,2013-10-21 03:09:00,
2013-10-20 23:14:00,43.0,40.0,30.05,ESE,112,0.0,0.0,89,0.00,,,0.00,WUHU21623XXSP,2013-10-21 03:14:00,
2013-10-20 23:19:00,43.2,40.2,30.05,East,90,0.0,0.0,89,0.00,,,0.00,WUHU21623XXSP,2013-10-21 03:19:00,
2013-10-20 23:24:00,43.2,40.2,30.05,East,90,0.0,0.0,89,0.00,,,0.00,WUHU21623XXSP,2013-10-21 03:24:00,
2013-10-20 23:29:00,43.2,40.2,30.05,East,90,0.0,0.0,89,0.00,,,0.00,WUHU21623XXSP,2013-10-21 03:29:00,
2013-10-20 23:34:00,43.2,40.2,30.05,East,90,0.0,0.0,89,0.00,,,0.00,WUHU21623XXSP,2013-10-21 03:34:00,
2013-10-20 23:39:00,43.0,40.0,30.05,ESE,112,0.0,0.0,89,0.00,,,0.00,WUHU21623XXSP,2013-10-21 03:39:00,
2013-10-20 23:44:00,43.0,40.0,30.05,East,90,0.0,0.0,89,0.00,,,0.00,WUHU21623XXSP,2013-10-21 03:44:00,
2013-10-20 23:50:00,43.0,40.0,30.05,ESE,112,0.0,0.0,89,0.00,,,0.00,WUHU21623XXSP,2013-10-21 03:50:00,
2013-10-20 23:55:00,43.0,40.0,30.05,East,90,0.0,0.0,89,0.00,,,0.00,WUHU21623XXSP,2013-10-21 03:55:00,